CZ-4 DEB, 26310

Orbit data source: Space-Track

CZ-4 DEB, 26310 is space debris in SSO originally from a launch on Thu, 14 Oct 1999 UTC launched from the Taiyaun Space Center, China (TSC). Debris objects in space refer to the collection of defunct objects orbiting the Earth. Examples of debris include non-operational satellites, rocket bodies, and fragments generated from explosions, collisions, or faulty payload assembly.

Loading next visibility...
Identifier
26310, 1999-057GT
Orbit
SSO
Country
Flag of CNCN / PRC
Related business
Manufacturer
Unknown
Mission
Spacecraft
Bus & Motor
Unknown
Mass
Unknown
Launch date (UTC)
1999-10-14 (26 years ago)
Launch vehicle
Unknown
Launch site
Taiyaun Space Center, China (TSC)
Object type
Payload
Rocket body
Debris
Shape & HBR
Unknown shape, 0.1 m
Radar Cross Section
Small (<0.1 m²)

Expand to show TLE details & history
Last TLE update: 13 hours ago

TLE from 13 hours ago
0 CZ-4 DEB
1 26310U 99057GT  26038.10976410  .00001698  00000-0  44633-3 0  9996
2 26310  98.5452 104.2197 0089694  60.9082   1.8778 14.48076894358381
Epoch: 2026-02-07T02:38Z
TLE epoch observation values (Epoch: 2026-02-07T02:38:03.618Z)
Latitude
61.70284°
Longitude
-88.64945°
Altitude
678.724 km
Speed
7.557 km/s
True Right ascension
05h 52m 24s
True Declination
61° 33' 27"
Sunlit
Object was in full shadow at epoch
Visualization orbit readout
Latitude
Unknown
Longitude
Unknown
Altitude
Unknown
Speed
Unknown
Apparent Right ascension
Unknown
Apparent Declination
Unknown
Sunlit
N/A
Visualization observer readout
Local Sidereal Time
18:13:47
Azimuth
Unknown
Elevation
Unknown
Doppler factor
Unknown
Orbital elements
Apogee altitude
792.797 km
Perigee altitude
665.302 km
Semi-major axis
7,107.186 km
Eccentricity
0.00897
Inclination
98.5452°
RAAN
104.2197°
Arg. of periapsis
60.9082°
True anomaly
1.91186°
Mean anomaly
1.8778°
Eccentric anomaly
1.89479°
Mean motion
3.6224 °/min
Orbital period
99.38 mins
BSTAR
0.00044633
Loading maneuver chart data...
Computing Atmospheric mass density...
Loading historical data...
Loading historical data...
Loading historical data...
Loading historical data...
Loading historical data...
Loading historical data...
Loading historical data...

Documentation

Showing up to 5 results
|